Accueil
METAR-TAF:

METAR-TAF

Aéroports :

Greenville, Maine, États-Unis

latitude: 45-28N, longitude: 069-35W, altitude: 427 m

Observation

Le bulletin a été fait il y a 13 minutes, à 06:56 UTC
Vent 3 kt de nord
Température 9°C
Humidité 81%
Pression 1005 hPa

METAR: KGNR 030656Z AUTO 35003KT 09/06 A2967 RMK AO1 SLP049 T00890056

Heure: 03:09 (07:09 UTC)


TAF: absent

Observations et prévisions météorologiques de plus de 4000 aéroports (messages METAR et TAF).

Les stations disponibles sont représentées par des disques jaunes et rouges sur la carte.

Passer la souris dessus pour voir le nom de la station.

Cliquer dessus pour voir les observations et prévisions météorologiques.

Pour changer de carte: cliquez sur les boutons verts avec une croix noire pour zoomer, sur le bouton vert avec un tiret pour effectuer un zoom arrière, ou sur les flèches vertes pour les cartes adjacentes.


METAR-TAF: